Other Public Products
Issued by NWS Charleston, SC

Current Version | Previous Version | Graphics & Text | Print | Product List | Glossary On
Versions: 1 2 3 4 5 6 7 8 9 10 11 12 13 14 15 16 17 18 19 20 21 22 23 24 25 26 27 28 29 30 31 32 33 34 35 36 37 38 39 40 41 42 43 44 45 46 47 48 49 50
346 FPUS82 KCHS 211712 OPUCHS TEST...KCHS/KSAV Gateway Observations...TEST National Weather Service Charleston SC 1200 PM EST SAT JAN 21 2017 NOTE: "fair" indicates few or no clouds below 12,000 feet with no significant weather and/or obstructions to visibility. SCZ050-WAZ558-NCZ071-TXZ119-213-PAZ071-DCZ001-FLZ074-172-MI076- NYZ176-178-MAZ016-IL014-TNZ027-NJZ106-GAZ044-MD014-211800- ...Gateway Observations for Charleston International... CITY SKY/WX TMP DP RH WIND PRES REMARKS Chas Airport CLOUDY 67 65 93 S9 29.85F Seattle CLOUDY 44 35 70 SE5 29.34R Charlotte CLOUDY 57 54 89 VRB5 29.86F FOG Dallas DFW CLOUDY 60 55 83 S7 29.53F Dallas Love CLOUDY 63 54 72 SE10 29.54F Philladelphia CLOUDY 45 44 97 W6 29.89F FOG Wash National CLOUDY 49 48 97 S7 29.90F Baltimore CLOUDY 47 47 100 CALM 29.89F FOG Miami CLOUDY 81 67 62 S13G23 29.98F Detroit MOSUNNY 50 49 96 S5 29.66F FOG Newark CLOUDY 45 42 89 W10 29.87F Laguardia PTSUNNY 48 42 80 W9 29.86F J F K CLOUDY 46 46 100 W10 29.88S Boston Logan CLOUDY 47 40 76 SW7 29.79F Ft. Lauderdale PTSUNNY 80 67 64 S15 29.97F Chicago O`Hare MOSUNNY 56 47 71 S12 29.50F Chicago Midway MOSUNNY 55 47 74 S14 29.51F Houston Bush CLOUDY 70 64 81 S9 29.61F Houston Hobby PTSUNNY 71 63 75 S15 29.61F Nashville CLOUDY 67 45 45 S8 29.72R Atlanta RAIN 59 59 100 NE22 29.69F FOG $$ GAZ044-118-TXZ119-213-NCZ071-DCZ001-MDZ014-506-PAZ021-071-NJZ106- NYZ176-178-MAZ106-OHZ011-021-055-MIZ076-KYZ091-ILZ014-INZ047- MNZ060-211800- ...Gateway Observations for Savannah International... CITY SKY/WX TMP DP RH WIND PRES REMARKS Savannah Arpt CLOUDY 72 66 81 SW5 29.85F Atlanta RAIN 59 59 100 NE22 29.69F FOG Charlotte CLOUDY 57 54 89 VRB5 29.86F FOG Dallas DFW CLOUDY 60 55 83 S7 29.53F Houston Bush CLOUDY 70 64 81 S9 29.61F Wash National CLOUDY 49 48 97 S7 29.90F Wash Dulles FOG 48 46 93 S7 29.88F VSB 1/2 Baltimore CLOUDY 47 47 100 CALM 29.89F FOG Philadelphia CLOUDY 45 44 97 W6 29.89F FOG Newark CLOUDY 45 42 89 W10 29.87F Laguardia PTSUNNY 48 42 80 W9 29.86F J F K CLOUDY 46 46 100 W10 29.88S Boston CLOUDY 47 40 76 SW7 29.79F Pittsburg PTSUNNY 60 51 72 S7 29.75F Akron PTSUNNY 59 50 72 SW10 29.73F Cleveland PTSUNNY 62 50 64 S12 29.71F Cincinnati CLOUDY 60 53 77 S8 29.68F Columbus N/A 58 52 79 S8 29.71F Detroit MOSUNNY 50 49 96 S5 29.66F FOG Chicago O`Hare MOSUNNY 56 47 71 S12 29.50F Minneapolis CLOUDY 37 34 89 E8 29.42F FOG WCI 31 Indianapolis PTSUNNY 58 51 78 S14 29.64R $$

USA.gov is the U.S. government's official web portal to all federal, state and local government web resources and services.